Zurück zum Katalog

TITAN 3C TRANSTAGE DEB

AktivMEO
NORAD 25000·DEBRIS·🇺🇸 United States

Gestartet Sep 26, 1968 von Cape Canaveral Space Force Station

Loading…

Nächste Überflüge (nächste 24 Stunden)

TLE

AktuellSource: Space-Track

Epoche: Sep 14, 2026, 16:36 UTC

1 25000U 68081G   26257.69218822 -.00000086  00000-0  00000-0 0  9995
2 25000   2.0783  47.1446 0112324 287.4766 138.7449  1.01035848126227

Verfolge TITAN 3C TRANSTAGE DEB in Echtzeit mit AllMySat

Download on the App Store